Location: Castle
(40.7167°S, 175.9500°E)
Time: 18:37:47
(UTC+00:00)

Meteor 1-24 Rocket - Pass Details

Date: 04 August 2024
Orbit: 790 x 925 km, 81.3° (Epoch: 17 September)

Event Time Altitude Azimuth Distance (km) Brightness Sun altitude
Rises 18:07:18 0° 325° (NW) 3,566 6.7 -13.7°
Reaches altitude 10° 18:10:04 10° 315° (NW) 2,626 5.9 -13.2°
Maximum altitude 18:15:23 32° 252° (WSW) 1,525 4.5 -12.2°
Drops below altitude 10° 18:20:41 10° 190° (S) 2,603 6.0 -11.3°
Sets 18:23:26 0° 179° (S) 3,531 6.8 -10.8°
